| time (UTC) | temp F | wind direction | speed knots | gust knots | rain 1hr in | rain 24hr in | rain mn in | humidity % | barometer mb |
| 20260509183706 | 54 | 227 | 1.7 | 7.0 | 0.00 | 0.33 | 0.33 | 86 | 1022.9 |
| 20260509183206 | 54 | 260 | 1.7 | 7.0 | 0.00 | 0.33 | 0.33 | 87 | 1022.8 |
| 20260509180206 | 54 | 280 | 0.9 | 4.3 | 0.00 | 0.33 | 0.33 | 88 | 1022.6 |
| 20260509173706 | 52 | 224 | 2.6 | 6.1 | 0.00 | 0.33 | 0.33 | 90 | 1022.5 |
| 20260509170705 | 51 | 209 | 1.7 | 6.1 | 0.01 | 0.33 | 0.33 | 90 | 1022.4 |
| 20260509170206 | 51 | 228 | 0.9 | 4.3 | 0.01 | 0.33 | 0.33 | 90 | 1022.3 |
| 20260509163705 | 51 | 144 | 1.7 | 7.8 | 0.02 | 0.33 | 0.33 | 91 | 1022.4 |
| 20260509163206 | 51 | 203 | 1.7 | 7.8 | 0.02 | 0.33 | 0.33 | 91 | 1022.5 |
| 20260509160705 | 50 | 241 | 2.6 | 10.4 | 0.03 | 0.32 | 0.32 | 92 | 1022.8 |
| 20260509160205 | 50 | 190 | 3.5 | 10.4 | 0.03 | 0.32 | 0.32 | 92 | 1022.8 |
| 20260509153705 | 50 | 191 | 4.3 | 12.2 | 0.04 | 0.31 | 0.31 | 93 | 1023.0 |
| 20260509153205 | 50 | 170 | 2.6 | 7.0 | 0.04 | 0.31 | 0.31 | 93 | 1023.0 |
| 20260509150206 | 50 | 208 | 1.7 | 7.0 | 0.04 | 0.29 | 0.29 | 94 | 1023.0 |
| 20260509143206 | 50 | 262 | 2.6 | 7.8 | 0.05 | 0.27 | 0.27 | 94 | 1023.2 |
| 20260509140705 | 49 | 216 | 3.5 | 8.7 | 0.06 | 0.25 | 0.25 | 93 | 1023.2 |
| 20260509140206 | 49 | 231 | 4.3 | 7.0 | 0.07 | 0.25 | 0.25 | 93 | 1023.2 |
| 20260509133206 | 49 | 175 | 4.3 | 10.4 | 0.06 | 0.22 | 0.22 | 93 | 1023.5 |
| 20260509130706 | 49 | 195 | 2.6 | 7.0 | 0.07 | 0.19 | 0.19 | 93 | 1023.4 |
| 20260509130205 | 49 | 218 | 1.7 | 7.0 | 0.06 | 0.18 | 0.18 | 93 | 1023.4 |
| 20260509123705 | 49 | 227 | 2.6 | 8.7 | 0.05 | 0.16 | 0.16 | 93 | 1023.5 |
| 20260509123207 | 49 | 225 | 3.5 | 8.7 | 0.06 | 0.16 | 0.16 | 92 | 1023.5 |
| 20260509120705 | 49 | 215 | 1.7 | 8.7 | 0.03 | 0.12 | 0.12 | 92 | 1023.6 |
| 20260509113706 | 48 | 227 | 5.2 | 10.4 | 0.06 | 0.11 | 0.11 | 92 | 1023.5 |
| 20260509113205 | 48 | 219 | 2.6 | 10.4 | 0.05 | 0.10 | 0.10 | 92 | 1023.5 |
| 20260509110706 | 48 | 196 | 1.7 | 7.0 | 0.05 | 0.09 | 0.09 | 92 | 1023.4 |
| 20260509110205 | 48 | 204 | 2.6 | 7.0 | 0.04 | 0.08 | 0.08 | 92 | 1023.4 |
| 20260509103705 | 48 | 214 | 1.7 | 8.7 | 0.02 | 0.05 | 0.05 | 92 | 1023.5 |
| 20260509103205 | 48 | 215 | 2.6 | 8.7 | 0.02 | 0.05 | 0.05 | 92 | 1023.5 |
| 20260509100705 | 48 | 133 | 1.7 | 7.0 | 0.03 | 0.04 | 0.04 | 91 | 1023.8 |
| 20260509100206 | 48 | 169 | 2.6 | 7.0 | 0.04 | 0.04 | 0.04 | 91 | 1023.7 |
| 20260509093705 | 48 | 220 | 1.7 | 7.8 | 0.03 | 0.03 | 0.03 | 89 | 1024.1 |
| 20260509093206 | 48 | 197 | 1.7 | 6.1 | 0.03 | 0.03 | 0.03 | 89 | 1024.2 |
| 20260509090705 | 50 | 250 | 4.3 | 10.4 | 0.01 | 0.01 | 0.01 | 83 | 1024.3 |
| 20260509090205 | 50 | 247 | 5.2 | 10.4 | 0.00 | 0.00 | 0.00 | 81 | 1024.2 |
| 20260509083206 | 51 | 234 | 1.7 | 6.1 | 0.00 | 0.00 | 0.00 | 78 | 1023.6 |
| 20260509080705 | 54 | 276 | 2.6 | 10.4 | 0.00 | 0.00 | 0.00 | 71 | 1022.8 |
| 20260509080205 | 55 | 240 | 4.3 | 10.4 | 0.00 | 0.00 | 0.00 | 63 | 1022.8 |
| 20260509073706 | 54 | 143 | 1.7 | 7.0 | 0.00 | 0.00 | 0.00 | 67 | 1022.6 |
| 20260509073205 | 54 | 200 | 2.6 | 7.0 | 0.00 | 0.00 | 0.00 | 68 | 1022.6 |
| 20260509070706 | 52 | 169 | 1.7 | 4.3 | 0.00 | 0.00 | 0.00 | 76 | 1022.6 |
| 20260509070205 | 52 | 194 | 0.9 | 2.6 | 0.00 | 0.00 | 0.00 | 77 | 1022.7 |
| 20260509063205 | 52 | 125 | 0.0 | 1.7 | 0.00 | 0.00 | 0.00 | 78 | 1022.9 |
| 20260509060705 | 52 | 126 | 0.0 | 2.6 | 0.00 | 0.00 | 0.00 | 76 | 1023.6 |
| 20260509060206 | 52 | 125 | 0.9 | 2.6 | 0.00 | 0.00 | 0.00 | 77 | 1023.7 |
| 20260509053705 | 51 | 105 | 0.9 | 2.6 | 0.00 | 0.00 | 0.00 | 79 | 1024.2 |
| 20260509053205 | 51 | 204 | 1.7 | 2.6 | 0.00 | 0.00 | 0.00 | 79 | 1024.4 |
| 20260509050706 | 50 | 246 | 0.9 | 1.7 | 0.00 | 0.00 | 0.00 | 77 | 1024.7 |
| 20260509043705 | 51 | 270 | 0.0 | 0.0 | 0.00 | 0.00 | 0.00 | 76 | 1024.9 |
| 20260509040705 | 51 | 270 | 0.0 | 0.0 | 0.00 | 0.00 | 0.00 | 75 | 1025.2 |
| 20260509033705 | 51 | 270 | 0.0 | 0.0 | 0.00 | 0.00 | 0.00 | 76 | 1025.5 |
| 20260509030706 | 51 | 270 | 0.0 | 0.0 | 0.00 | 0.00 | 0.00 | 77 | 1025.5 |
| 20260509023705 | 51 | 270 | 0.0 | 0.0 | 0.00 | 0.00 | 0.00 | 78 | 1025.6 |
| 20260509023206 | 51 | 270 | 0.0 | 0.0 | 0.00 | 0.00 | 0.00 | 79 | 1025.5 |
| 20260509020706 | 52 | 270 | 0.0 | 0.0 | 0.00 | 0.00 | 0.00 | 78 | 1025.3 |
| 20260509020206 | 52 | 270 | 0.0 | 0.0 | 0.00 | 0.00 | 0.00 | 77 | 1025.2 |
| 20260509013706 | 53 | 270 | 0.0 | 0.9 | 0.00 | 0.00 | 0.00 | 74 | 1024.9 |
| 20260509013207 | 53 | 270 | 0.0 | 2.6 | 0.00 | 0.00 | 0.00 | 72 | 1024.9 |
| 20260509010706 | 52 | 263 | 0.0 | 0.0 | 0.00 | 0.00 | 0.00 | 74 | 1024.8 |
| 20260509003706 | 52 | 263 | 0.0 | 0.0 | 0.00 | 0.00 | 0.00 | 74 | 1024.9 |
| 20260509003209 | 52 | 263 | 0.0 | 0.0 | 0.00 | 0.00 | 0.00 | 74 | 1024.9 |
| 20260509000706 | 52 | 263 | 0.0 | 0.0 | 0.00 | 0.00 | 0.00 | 72 | 1024.6 |
| 20260509000206 | 52 | 263 | 0.0 | 0.0 | 0.00 | 0.00 | 0.00 | 73 | 1024.5 |
| 20260508233706 | 53 | 263 | 0.0 | 0.9 | 0.00 | 0.00 | 0.00 | 73 | 1024.8 |
| 20260508233206 | 53 | 263 | 0.9 | 0.9 | 0.00 | 0.00 | 0.00 | 74 | 1024.7 |
| 20260508230706 | 54 | 263 | 0.0 | 0.9 | 0.00 | 0.00 | 0.00 | 69 | 1024.7 |
| 20260508230206 | 54 | 263 | 0.9 | 0.9 | 0.00 | 0.00 | 0.00 | 69 | 1024.7 |
| 20260508223207 | 55 | 263 | 0.9 | 1.7 | 0.00 | 0.00 | 0.00 | 64 | 1024.7 |
| 20260508220706 | 56 | 319 | 1.7 | 2.6 | 0.00 | 0.00 | 0.00 | 62 | 1024.8 |
| 20260508220206 | 56 | 220 | 1.7 | 2.6 | 0.00 | 0.00 | 0.00 | 64 | 1024.8 |
| 20260508213706 | 53 | 210 | 0.9 | 2.6 | 0.00 | 0.00 | 0.00 | 73 | 1025.2 |
| 20260508213206 | 53 | 207 | 0.9 | 1.7 | 0.00 | 0.00 | 0.00 | 74 | 1025.3 |
| 20260508210705 | 52 | 207 | 0.9 | 1.7 | 0.00 | 0.00 | 0.00 | 77 | 1025.4 |
| 20260508210206 | 52 | 207 | 0.0 | 1.7 | 0.00 | 0.00 | 0.00 | 78 | 1025.4 |
| 20260508203705 | 52 | 207 | 0.9 | 2.6 | 0.00 | 0.00 | 0.00 | 75 | 1025.8 |
| 20260508203205 | 52 | 207 | 0.9 | 7.0 | 0.00 | 0.00 | 0.00 | 74 | 1026.0 |
| 20260508200706 | 53 | 258 | 1.7 | 7.0 | 0.00 | 0.00 | 0.00 | 70 | 1026.1 |
| 20260508200205 | 53 | 281 | 1.7 | 7.0 | 0.00 | 0.00 | 0.00 | 72 | 1026.1 |
| 20260508193706 | 54 | 240 | 2.6 | 10.4 | 0.00 | 0.00 | 0.00 | 67 | 1026.4 |
| 20260508193207 | 54 | 241 | 5.2 | 10.4 | 0.00 | 0.00 | 0.00 | 68 | 1026.6 |
| 20260508190706 | 55 | 233 | 3.5 | 12.2 | 0.00 | 0.00 | 0.00 | 62 | 1026.6 |
| 20260508190207 | 55 | 261 | 5.2 | 12.2 | 0.00 | 0.00 | 0.00 | 61 | 1026.6 |